Wind_Speed
11 11 9 10 12 12 12 12 12 13 12 11 10 9 8 8 8 8 9 9 10 15 12 9 5 2 3 7 10 11 11 11 11 11 11 11 12 12 12 13 13 13 12
11 11 8 10 12 12 12 12 13 13 12 11 9 8 7 8 8 8 9 10 12 13 10 8 6 6 9 11 12 11 11 11 11 11 13 13 14 13 14 14 15 14 14
14 11 10 10 13 13 12 12 13 12 11 11 10 9 9 9 10 10 11 12 12 13 12 11 11 12 12 12 12 11 12 12 12 13 13 15 14 12 12 13 14 13 14
17 13 12 11 13 14 13 12 12 12 11 11 10 10 10 10 11 11 12 13 14 15 15 14 14 13 12 12 12 12 12 12 13 12 13 12 9 9 10 10 10 11 10
20 17 14 13 14 14 13 13 11 11 11 11 11 11 11 11 12 12 13 14 14 14 15 14 13 13 13 13 14 13 12 12 11 11 9 9 9 8 8 8 8 8 8
22 19 16 15 15 14 14 13 12 11 11 12 12 12 13 13 12 13 14 14 14 14 15 14 14 15 14 14 13 12 10 9 8 7 6 7 7 6 7 6 7 7 7
25 21 19 17 16 14 14 14 13 13 12 13 12 13 13 14 14 14 15 15 15 15 15 15 15 14 13 11 10 9 9 9 9 8 8 7 6 6 7 7 7 7 8
27 25 22 20 17 15 14 15 15 14 13 13 13 13 13 13 14 15 15 15 15 14 14 15 13 11 10 10 10 10 11 9 9 9 10 9 9 9 9 9 8 8 8
29 26 25 22 19 18 17 16 15 14 13 12 12 13 14 14 15 15 14 14 14 14 14 12 11 11 11 11 11 11 11 11 10 10 10 10 10 9 8 8 7 7 7
32 30 28 25 23 20 19 18 17 16 14 12 12 13 14 15 15 14 13 13 14 12 12 12 12 12 11 11 10 10 10 9 9 9 10 10 9 9 9 8 7 7 8
36 34 31 28 27 25 23 22 21 19 17 15 14 14 14 14 14 14 13 13 12 12 12 12 12 11 10 8 7 7 7 7 7 8 8 8 8 8 8 8 8 9 9
40 37 35 32 30 29 27 25 24 23 21 20 17 16 14 13 12 13 13 13 13 13 12 11 9 8 6 5 4 4 4 5 6 7 7 8 8 9 9 9 9 10 11
41 39 38 34 30 31 31 29 27 26 24 22 20 19 18 16 15 12 12 12 13 11 9 8 6 4 3 2 2 3 5 6 7 8 9 10 10 10 11 11 11 12 12
42 41 37 36 32 30 32 31 30 29 27 24 21 19 18 17 16 15 14 13 11 10 9 7 5 3 1 1 3 5 7 9 10 11 11 11 12 12 13 13 13 14 14
35 37 39 36 33 31 35 33 32 31 29 26 24 21 19 17 16 14 14 13 12 10 9 8 5 4 4 5 6 8 9 11 12 13 13 14 14 15 15 16 16 16 16
30 34 34 37 35 33 34 36 34 32 31 29 26 24 22 20 19 18 16 14 13 12 11 10 9 9 8 8 10 10 12 13 14 15 16 16 17 17 17 17 17 17 18
29 31 34 38 37 35 35 32 34 33 32 31 29 27 25 23 22 21 20 18 17 16 16 15 14 13 13 11 11 12 13 14 15 15 16 17 16 18 18 18 18 18 18
32 30 31 33 34 35 36 35 35 35 34 33 32 30 28 27 26 24 23 22 21 20 19 19 18 17 15 14 13 13 14 13 14 14 14 16 18 19 19 19 19 19 19
33 33 32 31 38 33 38 37 36 34 36 35 34 33 32 30 29 28 26 26 25 24 22 21 21 19 17 16 15 14 14 14 14 15 16 17 19 20 22 20 22 22 22
34 33 35 33 32 27 27 35 36 36 35 36 36 35 34 33 32 30 29 29 28 26 25 24 22 21 19 17 16 16 16 16 17 17 18 20 21 22 24 26 25 26 26
37 33 35 36 34 32 40 28 30 37 40 38 38 37 36 34 34 31 30 30 30 29 26 25 24 22 20 19 18 19 19 20 20 20 21 23 24 25 27 28 31 31 31
37 35 35 36 35 33 36 43 43 35 38 39 36 36 36 35 34 32 31 32 30 28 25 25 23 22 22 21 21 21 22 23 23 23 24 25 27 29 31 33 34 33 34
40 37 37 36 35 36 38 41 46 41 35 36 39 37 35 33 33 31 30 29 26 26 25 25 23 23 23 23 23 23 25 26 28 29 29 28 28 31 34 36 33 32 30
48 41 38 34 33 38 44 42 44 42 34 35 40 39 37 31 30 29 25 24 25 24 23 23 23 23 25 25 26 27 28 30 30 33 36 31 32 35 38 33 33 32 32
46 42 40 32 30 33 40 34 49 36 37 41 36 37 35 35 36 36 29 26 24 22 21 20 21 24 25 25 30 30 31 33 35 35 38 38 38 38 37 34 34 33 35
47 45 44 34 26 37 25 16 28 34 48 47 38 36 34 44 46 46 41 27 24 24 29 29 28 29 29 31 31 29 35 37 37 37 38 39 41 41 36 34 34 34 31
Wind_Direction
166 160 159 155 151 151 150 143 138 136 130 122 117 110 105 103 99 97 99 106 117 143 144 156 154 115 83 95 98 97 94 89 87 84 81 77 74 72 69 70 73 72 70
175 159 167 163 156 153 151 147 141 139 131 126 120 118 110 105 99 98 104 113 130 144 156 154 140 117 110 105 103 101 98 94 91 89 86 82 77 74 73 78 70 70 68
177 164 166 166 157 156 155 148 142 140 135 131 124 116 112 110 109 108 109 113 118 124 130 128 122 118 112 108 106 104 98 98 96 93 91 85 78 77 81 77 75 75 69
175 168 161 166 163 158 156 152 149 144 139 130 123 121 118 118 116 114 115 117 117 121 124 121 120 118 114 111 105 103 102 100 95 95 91 89 90 84 76 74 73 71 71
176 167 166 168 163 161 157 153 150 147 140 133 129 126 123 124 122 123 122 119 120 123 121 121 121 117 113 110 107 102 98 93 91 82 85 78 85 79 73 69 66 61 59
175 168 168 164 159 160 158 156 153 150 142 136 134 129 128 127 126 126 124 123 125 123 121 120 117 114 112 109 105 102 97 89 86 84 81 84 81 74 65 54 51 47 46
177 167 166 163 158 159 159 157 152 151 149 141 138 133 132 129 129 126 125 126 124 121 118 117 114 112 108 103 100 95 89 85 81 79 73 70 66 61 57 50 45 39 35
177 170 166 162 157 156 158 154 154 151 152 148 146 144 136 134 131 130 130 127 122 120 118 115 111 108 103 99 94 89 86 77 78 73 70 67 62 58 53 48 43 36 28
177 173 169 164 157 154 156 155 154 154 154 156 155 149 143 143 141 138 135 129 125 123 120 116 112 107 102 96 90 86 81 76 72 67 64 60 56 50 43 38 32 23 14
183 177 173 169 159 154 153 155 156 153 152 156 152 150 149 149 143 140 135 132 129 128 125 120 116 109 102 94 88 82 76 70 62 56 50 46 42 40 34 26 15 6 3
189 179 177 174 164 158 154 152 150 149 149 151 150 151 150 147 144 141 139 136 135 131 126 122 116 110 103 94 83 72 59 45 36 33 30 28 23 18 13 9 2 357 353
190 184 182 179 172 166 162 157 154 149 145 141 142 145 144 144 143 142 142 141 138 133 127 122 113 107 103 93 71 45 25 11 1 357 355 357 354 352 349 347 345 344 343
193 192 183 185 184 176 169 168 163 159 155 150 145 140 134 130 133 138 144 147 148 145 140 135 133 131 123 89 30 360 349 340 336 336 335 335 331 328 326 326 327 329 329
195 195 190 187 189 189 181 177 173 170 167 163 159 155 150 148 144 143 141 140 139 140 141 144 148 158 173 321 323 323 321 319 320 321 321 319 319 317 318 317 317 316 315
200 201 202 194 194 196 190 188 183 181 178 176 174 172 170 169 170 172 173 173 173 175 178 185 195 223 258 274 286 299 306 309 310 310 313 311 311 311 311 311 310 309 308
199 204 209 208 202 202 201 197 192 191 190 188 188 187 188 191 194 197 201 203 208 211 217 224 234 242 252 271 281 290 298 301 303 305 305 306 307 307 308 308 308 307 306
202 203 206 214 211 210 209 208 204 201 200 199 199 201 203 206 211 215 221 225 232 239 246 250 252 254 257 264 281 285 293 296 298 301 304 309 311 311 311 311 310 308 308
208 206 206 210 217 215 220 215 213 211 211 208 210 211 215 218 222 227 232 237 244 250 254 256 259 259 261 263 279 283 288 293 298 303 305 310 315 316 313 312 310 308 307
213 213 211 209 214 218 223 225 221 219 218 219 218 218 221 225 229 234 239 245 250 252 256 258 258 257 258 260 275 277 283 292 299 302 304 308 312 315 314 312 308 307 307
218 217 217 215 213 217 226 222 226 224 225 225 227 226 226 229 232 237 242 247 252 254 255 258 256 254 256 262 270 274 280 289 300 300 301 303 308 311 311 309 305 304 302
226 220 223 220 218 216 229 231 232 230 228 227 231 233 232 233 235 238 242 246 251 254 253 252 252 253 253 261 265 272 280 289 297 298 299 301 304 305 306 304 302 300 297
230 221 225 224 219 219 221 225 232 238 234 232 230 234 238 238 239 240 243 250 251 250 247 249 251 252 256 260 266 274 282 286 290 295 297 300 301 303 304 302 297 294 293
230 234 222 222 220 223 224 222 225 236 228 226 229 232 233 238 239 241 242 241 242 241 243 247 249 254 257 261 267 276 282 285 293 299 296 298 298 298 301 301 295 295 294
227 232 221 215 218 218 226 227 228 231 219 220 227 229 230 231 234 235 233 231 231 238 245 249 252 255 258 263 267 275 277 279 287 290 296 296 297 299 303 299 296 295 293
226 226 217 214 217 227 231 219 226 222 228 232 221 221 222 227 232 232 225 229 227 233 237 245 254 258 258 264 270 275 279 286 285 287 290 297 297 299 300 298 299 288 290
223 222 219 213 218 234 224 242 236 231 238 234 230 225 231 227 223 228 228 228 228 229 232 241 255 256 260 269 281 286 283 280 282 284 287 291 294 297 296 295 294 289 280
Height
3157 3159 3160 3161 3161 3163 3165 3166 3167 3169 3169 3170 3171 3172 3172 3172 3172 3173 3173 3174 3175 3177 3178 3180 3181 3181 3181 3181 3181 3181 3182 3182 3183 3183 3182 3182 3182 3182 3181 3181 3181 3181 3181
3157 3159 3161 3161 3162 3163 3165 3167 3168 3169 3170 3171 3171 3172 3173 3173 3173 3174 3174 3175 3176 3177 3179 3180 3181 3182 3182 3182 3182 3183 3183 3183 3184 3184 3184 3184 3184 3184 3183 3183 3183 3183 3183
3156 3158 3160 3162 3163 3164 3166 3167 3169 3170 3170 3171 3172 3173 3173 3174 3174 3175 3176 3177 3177 3179 3180 3181 3182 3183 3183 3184 3184 3185 3185 3185 3185 3185 3185 3185 3186 3186 3185 3184 3184 3184 3184
3155 3158 3160 3162 3163 3164 3166 3168 3169 3170 3171 3172 3173 3174 3174 3175 3176 3177 3177 3179 3179 3180 3181 3182 3184 3184 3185 3186 3186 3186 3186 3187 3187 3188 3187 3187 3188 3187 3187 3186 3186 3185 3185
3154 3157 3159 3161 3163 3165 3166 3168 3170 3171 3172 3173 3174 3175 3176 3177 3178 3179 3180 3180 3181 3183 3183 3184 3186 3186 3187 3187 3188 3189 3189 3189 3189 3189 3189 3189 3189 3189 3188 3188 3187 3187 3187
3154 3156 3159 3161 3163 3165 3167 3168 3170 3172 3173 3174 3175 3176 3177 3178 3180 3181 3181 3182 3184 3185 3185 3186 3187 3188 3189 3190 3190 3191 3191 3191 3190 3191 3191 3191 3190 3190 3189 3189 3189 3189 3188
3152 3155 3158 3161 3163 3165 3167 3169 3170 3173 3174 3175 3177 3178 3179 3180 3182 3183 3183 3185 3186 3187 3188 3189 3190 3191 3191 3192 3193 3193 3193 3193 3193 3192 3193 3192 3192 3191 3191 3190 3190 3190 3189
3151 3154 3158 3160 3163 3165 3168 3169 3171 3173 3176 3177 3178 3179 3180 3181 3183 3184 3186 3187 3188 3189 3190 3191 3192 3193 3193 3194 3195 3195 3195 3195 3195 3194 3194 3194 3193 3193 3192 3192 3191 3191 3191
3150 3153 3157 3160 3162 3165 3168 3170 3172 3175 3177 3179 3180 3180 3181 3183 3185 3186 3187 3188 3189 3191 3192 3193 3194 3195 3196 3196 3196 3197 3196 3196 3196 3196 3195 3195 3195 3194 3194 3194 3193 3193 3192
3149 3152 3156 3159 3161 3164 3167 3170 3173 3175 3177 3180 3181 3182 3184 3185 3186 3187 3188 3190 3191 3192 3194 3194 3195 3196 3197 3198 3199 3199 3198 3198 3197 3197 3197 3197 3196 3196 3195 3195 3194 3194 3193
3146 3151 3154 3158 3160 3164 3167 3170 3172 3175 3178 3180 3181 3183 3185 3186 3187 3188 3190 3191 3193 3194 3195 3197 3197 3198 3199 3200 3200 3200 3200 3199 3199 3199 3198 3198 3198 3197 3196 3196 3195 3194 3193
3143 3148 3152 3156 3160 3162 3166 3169 3172 3175 3178 3180 3182 3184 3186 3187 3188 3190 3191 3193 3195 3196 3197 3198 3199 3200 3201 3201 3201 3201 3200 3200 3200 3199 3199 3198 3198 3197 3197 3196 3195 3194 3193
3142 3146 3150 3155 3160 3162 3164 3168 3171 3174 3177 3180 3183 3185 3186 3187 3189 3191 3193 3194 3196 3197 3198 3199 3200 3200 3201 3201 3201 3201 3201 3201 3200 3199 3199 3198 3198 3197 3196 3196 3195 3194 3194
3138 3143 3148 3152 3157 3160 3164 3166 3170 3173 3176 3179 3182 3185 3186 3188 3190 3192 3194 3195 3197 3197 3198 3199 3200 3201 3201 3201 3201 3201 3200 3201 3200 3199 3199 3198 3197 3196 3195 3195 3194 3193 3193
3136 3141 3145 3150 3155 3158 3162 3165 3168 3171 3174 3177 3180 3183 3186 3189 3191 3193 3194 3195 3196 3197 3198 3199 3200 3200 3201 3201 3200 3200 3200 3200 3199 3199 3198 3197 3196 3195 3194 3193 3192 3192 3191
3135 3140 3144 3148 3153 3157 3159 3163 3166 3169 3172 3175 3179 3182 3185 3188 3190 3192 3194 3195 3196 3197 3198 3199 3199 3200 3200 3200 3200 3199 3199 3199 3198 3197 3196 3195 3194 3193 3192 3191 3190 3189 3188
3132 3137 3140 3145 3150 3154 3157 3160 3164 3167 3170 3173 3176 3180 3183 3186 3188 3190 3192 3194 3195 3196 3197 3198 3198 3198 3198 3198 3198 3198 3198 3197 3196 3195 3194 3192 3192 3190 3189 3188 3187 3187 3186
3128 3132 3137 3141 3146 3150 3154 3158 3161 3165 3168 3171 3174 3177 3181 3183 3185 3187 3189 3191 3193 3194 3195 3196 3196 3196 3196 3197 3197 3196 3196 3195 3194 3193 3192 3191 3189 3187 3187 3185 3184 3183 3182
3125 3129 3133 3137 3142 3146 3149 3154 3158 3161 3165 3168 3170 3174 3177 3179 3182 3184 3186 3188 3189 3191 3192 3192 3193 3193 3193 3194 3194 3194 3194 3193 3192 3191 3190 3189 3187 3185 3183 3183 3181 3180 3178
3121 3125 3130 3133 3138 3141 3145 3149 3153 3156 3160 3163 3167 3170 3172 3175 3177 3179 3182 3184 3185 3187 3188 3189 3190 3190 3190 3191 3191 3191 3191 3191 3190 3189 3188 3186 3184 3182 3181 3178 3178 3176 3174
3118 3121 3125 3129 3133 3135 3139 3144 3147 3152 3155 3158 3161 3164 3167 3169 3172 3174 3176 3179 3181 3183 3184 3185 3186 3187 3188 3188 3188 3188 3188 3187 3187 3186 3185 3183 3181 3179 3177 3175 3172 3170 3170
3114 3118 3121 3125 3128 3132 3135 3139 3145 3148 3150 3154 3156 3158 3161 3164 3166 3168 3171 3173 3175 3178 3179 3181 3182 3183 3184 3184 3185 3184 3184 3184 3183 3182 3181 3180 3177 3175 3173 3170 3168 3166 3163
3109 3114 3116 3120 3124 3128 3131 3132 3138 3142 3143 3146 3149 3152 3155 3158 3160 3163 3164 3167 3169 3172 3174 3176 3177 3179 3179 3180 3181 3181 3180 3179 3177 3177 3177 3176 3174 3171 3168 3165 3162 3160 3158
3103 3109 3112 3114 3118 3121 3125 3128 3131 3135 3137 3138 3142 3146 3150 3152 3154 3156 3159 3161 3164 3166 3168 3171 3173 3174 3174 3175 3176 3176 3175 3174 3173 3171 3169 3171 3168 3165 3162 3159 3156 3154 3152
3096 3102 3107 3110 3112 3117 3122 3117 3126 3130 3133 3135 3136 3138 3142 3145 3148 3152 3154 3154 3157 3160 3163 3165 3166 3168 3169 3169 3170 3171 3171 3169 3169 3167 3164 3162 3162 3159 3156 3153 3150 3148 3146
3090 3097 3102 3103 3107 3111 3110 3111 3118 3124 3128 3130 3132 3133 3133 3136 3140 3145 3147 3148 3151 3152 3155 3158 3160 3161 3161 3161 3162 3162 3163 3162 3161 3160 3158 3156 3153 3149 3150 3147 3145 3142 3140